Weather Roundup
Issued by NWS

Home | Current Version | Previous Version | Text Only | Print | Product List | Glossary On
Versions: 1 2 3 4 5 6 7 8 9 10 11 12 13 14 15 16 17 18 19 20 21 22 23 24 25 26 27 28 29 30 31 32 33 34 35 36 37 38 39 40 41 42 43 44 45 46 47 48 49 50
354
NZUS93 KARX 191310
HRRWXR

CURRENT HOURLY OBSERVATIONS ACROSS
MUCH OF THE UPPER MISSISSIPPI VALLEY
NATIONAL WEATHER SERVICE LA CROSSE WI
800 AM CDT SAT AUG 19 2017


...SOUTHEAST MINNESOTA...


CITY           SKY/WX    TMP DP  RH WIND       PRES   REMARKS
ROCHESTER      SUNNY     60  59  96 CALM      29.99R
ROCHESTER/MAYO FAIR      58  57  97 CALM      29.99R
WINONA         FOG       55  55 100 CALM      29.97R VSB 1
AUSTIN         SUNNY     57  55  94 CALM      29.98R
ALBERT LEA     SUNNY     63  63 100 CALM      29.98S FOG
DODGE CENTER   SUNNY     59  55  88 SW5       29.98R
PRESTON        SUNNY     58  55  92 CALM      29.99R
OWATONNA       SUNNY     57  57 100 CALM      29.98S
FARIBAULT      SUNNY     57  57 100 S3        29.97S
$$

...ELSEWHERE IN MINNESOTA...


CITY           SKY/WX    TMP DP  RH WIND       PRES   REMARKS
MINNEAPOLIS    MOSUNNY   62  59  90 S6        29.95R FOG
INTNL FALLS    SUNNY     58  56  93 VRB3      29.86S
DULUTH         SUNNY     62  60  93 NW7       29.90R
RED WING       FOG       57  55  94 CALM      29.95S VSB<1/4
REDWOOD FALLS  FOG       56  55  97 S7        29.96R VSB 1/4
MANKATO        FOG       59  58  96 SW5       29.98R VSB 1/4
WORTHINGTON    PTSUNNY   57  56  96 CALM      29.99S
FAIRMONT       FOG       57  57 100 SE3       29.98S VSB 1/4
$$

...SOUTHWEST WISCONSIN...


CITY           SKY/WX    TMP DP  RH WIND       PRES   REMARKS
LA CROSSE      FOG       60  59  96 SE3       29.95R VSB 1/4
PRAIRIE DU CHI FOG       58  56  96 CALM      29.97S VSB<1/4
BOSCOBEL       FOG       58  58 100 CALM      29.98R VSB<1/4
LONE ROCK      FOG       58  58 100 CALM      29.97R VSB<1/4
PLATTEVILLE    SUNNY     60  60 100 CALM      29.98R
FORT MC COY    FOG       54  54 100 CALM      29.97S VSB 1/2
CAMP DOUGLAS   SUNNY     59  59 100 CALM      29.96R
MAUSTON-NEW LI SUNNY     60  59  98 CALM      29.96R
VIROQUA        FAIR      61  61 100 CALM      29.97R
WIS DELLS      SUNNY     61  60  96 CALM      29.97R
$$

...ELSEWHERE IN WISCONSIN...


CITY           SKY/WX    TMP DP  RH WIND       PRES   REMARKS
MILWAUKEE      SUNNY     67  63  87 NW3       29.94R
MADISON        SUNNY     64  61  90 CALM      29.96R
GREEN BAY      CLOUDY    64  64 100 W8        29.93R
EAU CLAIRE     MOSUNNY   60  60 100 SW3       29.94R FOG
BLACK RVR FLS  FOG       57  57 100 CALM      29.96S VSB<1/4
MEDFORD        FOG       59  58  99 W5        29.95R VSB 1/4
WAUSAU         CLOUDY    61  60  97 W6        29.93R FOG
WIS RAPIDS     PTSUNNY   61  61 100 W5        29.97R FOG
MARSHFIELD     SUNNY     61  59  93 W5        29.95R FOG
RICE LAKE      SUNNY     58  58  98 CALM      29.96R FOG
$$

...NORTHEAST IOWA...


CITY           SKY/WX    TMP DP  RH WIND       PRES   REMARKS
WATERLOO       MOSUNNY   61  59  93 CALM      29.96R
DUBUQUE        SUNNY     64  61  90 CALM      29.98R
DECORAH        SUNNY     55  55 100 CALM      29.98R
MASON CITY     SUNNY     60  58  92 CALM      29.99R
CHARLES CITY   MOSUNNY   59  59 100 CALM      29.99R
OELWEIN        SUNNY     61  61 100 CALM      29.98S
$$

...ELSEWHERE IN IOWA...


CITY           SKY/WX    TMP DP  RH WIND       PRES   REMARKS
DES MOINES     PTSUNNY   67  62  84 CALM      29.94R
IOWA CITY      SUNNY     66  61  84 CALM      29.98R
FORT DODGE     MOSUNNY   61  57  88 CALM      29.98R
MARSHALLTOWN   CLOUDY    63  62  97 E3        29.96R
CEDAR RAPIDS   SUNNY     61  61 100 CALM      29.97R
$$

...NORTHERN ILLINOIS...


CITY           SKY/WX    TMP DP  RH WIND       PRES   REMARKS
CHICAGO-OHARE  MOSUNNY   68  61  78 N5        29.96R
CHICAGO-MIDWAY MOSUNNY   68  62  81 NW6       29.96R
MOLINE         SUNNY     66  62  87 CALM      29.96R
ROCKFORD       SUNNY     63  60  90 CALM      29.97S
PEORIA         CLOUDY    68  62  81 CALM      29.95R
$$

NOTE: "FAIR" INDICATES FEW OR NO CLOUDS BELOW 12,000 FEET WITH NO
SIGNIFICANT WEATHER AND/OR OBSTRUCTIONS TO VISIBILITY. WIND
SPEEDS ARE IN MILES-PER-HOUR.




USA.gov is the U.S. government's official web portal to all federal, state and local government web resources and services.